• In Uzbekistan
  • List of Countries
  • For 7 days
  • Water Temperature
  • Satellite Maps
  • Weather Map
  • Weather Widgets
  • user-avatar
    Login

    Hourly Weather Abovyan

    Today, 28 March, Tuesday

    Time Temperature Precipitation Wind Pressure Humidity
    00:00 +6°C° 0.3 mm 2 mps 666 mmHg 76%
    01:00 +6°C° 0.2 mm 2 mps 666 mmHg 78%
    02:00 +6°C° 0.2 mm 2 mps 666 mmHg 79%
    03:00 +5°C° 0.2 mm 2 mps 665 mmHg 81%
    04:00 +5°C° 0.4 mm 2 mps 666 mmHg 81%
    05:00 +5°C° 0.4 mm 2 mps 666 mmHg 81%
    06:00 +5°C° 0.4 mm 2 mps 666 mmHg 82%
    07:00 +6°C° 0.8 mm 2 mps 667 mmHg 79%
    08:00 +7°C° 0.8 mm 2 mps 667 mmHg 77%
    09:00 +7°C° 0.8 mm 2 mps 668 mmHg 74%
    10:00 +7°C° 0.7 mm 2 mps 668 mmHg 74%
    11:00 +8°C° 0.7 mm 2 mps 668 mmHg 74%
    12:00 +8°C° 0.7 mm 2 mps 668 mmHg 74%
    13:00 +8°C° 0.3 mm 2 mps 668 mmHg 72%
    14:00 +9°C° 0.3 mm 2 mps 668 mmHg 70%
    15:00 +9°C° 0.3 mm 2 mps 668 mmHg 69%
    16:00 +8°C° 0 mm 2 mps 668 mmHg 71%
    17:00 +8°C° 0 mm 1 mps 668 mmHg 73%
    18:00 +7°C° 0 mm 1 mps 668 mmHg 75%
    19:00 +6°C° 0 mm 1 mps 669 mmHg 76%
    20:00 +5°C° 0 mm 1 mps 669 mmHg 77%
    21:00 +3°C° 0 mm 1 mps 669 mmHg 79%
    22:00 +3°C° 0 mm 1 mps 669 mmHg 78%
    23:00 +3°C° 0 mm 1 mps 670 mmHg 78%

    Tomorrow, 29 March, Wednesday

    Time Temperature Precipitation Wind Pressure Humidity
    00:00 +2°C° 0 mm 1 mps 670 mmHg 78%
    01:00 +2°C° 0 mm 1 mps 670 mmHg 79%
    02:00 +2°C° 0 mm 1 mps 670 mmHg 79%
    03:00 +2°C° 0 mm 1 mps 670 mmHg 80%
    04:00 +1°C° 0 mm 1 mps 670 mmHg 81%
    05:00 +1°C° 0 mm 1 mps 670 mmHg 82%
    06:00 +1°C° 0 mm 1 mps 670 mmHg 83%
    07:00 +3°C° 0 mm 1 mps 670 mmHg 77%
    08:00 +6°C° 0 mm 1 mps 671 mmHg 72%
    09:00 +8°C° 0 mm 1 mps 671 mmHg 66%
    10:00 +9°C° 0 mm 1 mps 671 mmHg 63%
    11:00 +11°C° 0 mm 1 mps 672 mmHg 61%
    12:00 +12°C° 0 mm 2 mps 672 mmHg 58%
    13:00 +12°C° 0 mm 2 mps 671 mmHg 57%
    14:00 +13°C° 0 mm 2 mps 671 mmHg 55%
    15:00 +13°C° 0 mm 2 mps 671 mmHg 54%
    16:00 +10°C° 0 mm 2 mps 671 mmHg 57%
    17:00 +9°C° 0 mm 2 mps 671 mmHg 61%
    18:00 +8°C° 0 mm 1 mps 671 mmHg 64%
    19:00 +7°C° 0 mm 1 mps 671 mmHg 66%
    20:00 +6°C° 0 mm 1 mps 672 mmHg 67%
    21:00 +5°C° 0 mm 1 mps 672 mmHg 68%
    22:00 +4°C° 0 mm 1 mps 672 mmHg 69%
    23:00 +4°C° 0 mm 1 mps 672 mmHg 69%

    Day after tomorrow, 30 March, Thursday

    Time Temperature Precipitation Wind Pressure Humidity
    00:00 +3°C° 0 mm 1 mps 672 mmHg 69%
    01:00 +3°C° 0 mm 1 mps 672 mmHg 70%
    02:00 +2°C° 0 mm 1 mps 672 mmHg 70%
    03:00 +1°C° 0 mm 1 mps 672 mmHg 71%
    04:00 +1°C° 0 mm 1 mps 672 mmHg 71%
    05:00 +1°C° 0 mm 1 mps 672 mmHg 72%
    06:00 0°C° 0 mm 0 mps 672 mmHg 72%
    07:00 +4°C° 0 mm 1 mps 673 mmHg 66%
    08:00 +7°C° 0 mm 1 mps 673 mmHg 60%
    09:00 +10°C° 0 mm 1 mps 674 mmHg 54%
    10:00 +10°C° 0 mm 2 mps 674 mmHg 52%
    11:00 +12°C° 0 mm 2 mps 673 mmHg 50%
    12:00 +13°C° 0 mm 2 mps 673 mmHg 48%
    13:00 +13°C° 0 mm 2 mps 673 mmHg 48%
    14:00 +14°C° 0 mm 2 mps 672 mmHg 47%
    15:00 +14°C° 0 mm 2 mps 672 mmHg 47%
    16:00 +12°C° 0 mm 2 mps 671 mmHg 51%
    17:00 +10°C° 0 mm 2 mps 671 mmHg 55%
    18:00 +8°C° 0 mm 2 mps 671 mmHg 59%
    19:00 +7°C° 0 mm 1 mps 671 mmHg 60%
    20:00 +6°C° 0 mm 1 mps 671 mmHg 62%
    21:00 +5°C° 0 mm 1 mps 671 mmHg 63%
    22:00 +4°C° 0 mm 1 mps 671 mmHg 64%
    23:00 +4°C° 0 mm 1 mps 671 mmHg 65%

    31 March, Friday

    Time Temperature Precipitation Wind Pressure Humidity
    00:00 +4°C° 0 mm 1 mps 671 mmHg 65%
    01:00 +4°C° 0 mm 1 mps 671 mmHg 65%
    02:00 +4°C° 0 mm 1 mps 670 mmHg 66%
    03:00 +3°C° 0 mm 1 mps 670 mmHg 66%
    04:00 +3°C° 0 mm 1 mps 670 mmHg 66%
    05:00 +3°C° 0 mm 1 mps 670 mmHg 67%
    06:00 +3°C° 0 mm 1 mps 670 mmHg 68%
    07:00 +6°C° 0 mm 1 mps 670 mmHg 63%
    08:00 +8°C° 0 mm 1 mps 671 mmHg 58%
    09:00 +11°C° 0 mm 1 mps 671 mmHg 53%
    10:00 +12°C° 0 mm 1 mps 671 mmHg 52%
    11:00 +13°C° 0 mm 1 mps 671 mmHg 51%
    12:00 +14°C° 0 mm 1 mps 671 mmHg 50%
    13:00 +14°C° 0 mm 1 mps 671 mmHg 50%
    14:00 +14°C° 0 mm 1 mps 670 mmHg 50%
    15:00 +15°C° 0 mm 1 mps 670 mmHg 50%
    16:00 +13°C° 0.1 mm 1 mps 670 mmHg 55%
    17:00 +12°C° 0.1 mm 1 mps 669 mmHg 59%
    18:00 +11°C° 0.1 mm 1 mps 669 mmHg 64%
    19:00 +10°C° 0.2 mm 1 mps 669 mmHg 66%
    20:00 +9°C° 0.2 mm 1 mps 670 mmHg 69%
    21:00 +9°C° 0.2 mm 1 mps 670 mmHg 72%
    22:00 +9°C° 0.4 mm 1 mps 670 mmHg 74%
    23:00 +8°C° 0.4 mm 1 mps 670 mmHg 77%

    1 April, Saturday

    Time Temperature Precipitation Wind Pressure Humidity
    00:00 +8°C° 0.4 mm 1 mps 670 mmHg 80%
    01:00 +8°C° 0.7 mm 1 mps 670 mmHg 81%
    02:00 +8°C° 0.7 mm 1 mps 670 mmHg 82%
    03:00 +7°C° 0.7 mm 1 mps 670 mmHg 83%
    04:00 +7°C° 0.3 mm 1 mps 670 mmHg 84%
    05:00 +6°C° 0.3 mm 1 mps 670 mmHg 85%
    06:00 +6°C° 0.3 mm 1 mps 670 mmHg 86%
    07:00 +7°C° 0.1 mm 1 mps 670 mmHg 81%
    08:00 +9°C° 0.1 mm 1 mps 670 mmHg 76%
    09:00 +10°C° 0.1 mm 1 mps 670 mmHg 71%
    10:00 +11°C° 0.2 mm 1 mps 670 mmHg 69%
    11:00 +11°C° 0.2 mm 1 mps 670 mmHg 68%
    12:00 +12°C° 0.2 mm 1 mps 670 mmHg 66%
    13:00 +12°C° 0.3 mm 1 mps 669 mmHg 67%
    14:00 +12°C° 0.3 mm 1 mps 669 mmHg 68%
    15:00 +12°C° 0.3 mm 1 mps 669 mmHg 70%
    16:00 +11°C° 0.2 mm 1 mps 669 mmHg 72%
    17:00 +10°C° 0.2 mm 1 mps 669 mmHg 75%
    18:00 +9°C° 0.2 mm 1 mps 669 mmHg 78%
    19:00 +9°C° 0.2 mm 1 mps 669 mmHg 79%
    20:00 +8°C° 0.2 mm 1 mps 669 mmHg 81%
    21:00 +7°C° 0.2 mm 2 mps 669 mmHg 82%
    22:00 +7°C° 0.1 mm 2 mps 669 mmHg 83%
    23:00 +6°C° 0.1 mm 2 mps 669 mmHg 83%

    2 April, Sunday

    Time Temperature Precipitation Wind Pressure Humidity
    00:00 +6°C° 0.1 mm 2 mps 669 mmHg 83%
    01:00 +6°C° 0.1 mm 2 mps 669 mmHg 83%
    02:00 +5°C° 0.1 mm 2 mps 669 mmHg 84%
    03:00 +5°C° 0.1 mm 2 mps 669 mmHg 84%
    04:00 +5°C° 0 mm 2 mps 669 mmHg 83%
    05:00 +4°C° 0 mm 2 mps 669 mmHg 83%
    06:00 +4°C° 0 mm 2 mps 669 mmHg 82%
    07:00 +4°C° 0 mm 3 mps 670 mmHg 77%
    08:00 +7°C° 0 mm 3 mps 670 mmHg 71%
    09:00 +8°C° 0 mm 3 mps 671 mmHg 66%
    10:00 +9°C° 0.1 mm 3 mps 671 mmHg 63%
    11:00 +10°C° 0.1 mm 3 mps 671 mmHg 61%
    12:00 +11°C° 0.1 mm 3 mps 672 mmHg 59%
    13:00 +10°C° 0.1 mm 3 mps 672 mmHg 58%
    14:00 +10°C° 0.1 mm 3 mps 672 mmHg 58%
    15:00 +10°C° 0.1 mm 3 mps 672 mmHg 58%
    16:00 +9°C° 0 mm 3 mps 672 mmHg 61%
    17:00 +8°C° 0 mm 3 mps 672 mmHg 64%
    18:00 +7°C° 0 mm 2 mps 673 mmHg 67%
    19:00 +6°C° 0 mm 2 mps 673 mmHg 70%
    20:00 +5°C° 0 mm 2 mps 674 mmHg 74%
    21:00 +4°C° 0 mm 2 mps 674 mmHg 77%
    22:00 +3°C° 0 mm 2 mps 675 mmHg 78%
    23:00 +4°C° 0 mm 1 mps 675 mmHg 79%
    Show more